EW3001 Weather Reports


Display with metric or nautical units.
time (UTC)temp
F
wind
direction
speed
MPH
gust
MPH
rain 1hr
in
rain 24hr
in
rain mn
in
humidity
%
barometer
mb
20260507104557 38 360 7.0 10.0 0.00 0.04 0.00 80 1014.5
20260507103055 38 360 5.0 10.0 0.00 0.04 0.00 80 1014.9
20260507101553 38 360 5.0 9.0 0.00 0.04 0.00 80 1014.9
20260507100059 38 360 7.0 11.0 0.00 0.04 0.00 80 1015.1
20260507094554 39 360 8.0 12.0 0.00 0.04 0.00 81 1015.2
20260507093054 39 360 8.0 11.0 0.00 0.04 0.00 81 1015.2
20260507091554 39 360 6.0 12.0 0.00 0.04 0.00 81 1015.4
20260507090100 40 360 7.0 12.0 0.00 0.04 0.00 81 1015.5
20260507084553 40 360 8.0 12.0 0.00 0.04 0.00 81 1015.6
20260507083050 40 360 8.0 13.0 0.00 0.04 0.00 81 1015.9
20260507081554 40 360 7.0 12.0 0.00 0.04 0.00 81 1016.3
20260507074545 41 360 8.0 11.0 0.00 0.04 0.00 81 1016.7
20260507073050 41 360 9.0 13.0 0.00 0.04 0.00 81 1016.7
20260507071549 42 360 9.0 13.0 0.00 0.04 0.00 81 1016.9
20260507070056 41 360 8.0 11.0 0.00 0.04 0.00 81 1017.1
20260507064629 42 360 7.0 12.0 0.00 0.06 0.00 81 1017.3
20260507063053 43 360 9.0 12.0 0.00 0.06 0.00 81 1017.5
20260507061550 43 360 8.0 12.0 0.00 0.06 0.00 81 1017.6
20260507060143 43 360 9.0 13.0 0.00 0.06 0.00 81 1017.5
20260507054554 43 360 8.0 14.0 0.00 0.08 0.00 81 1017.8
20260507053107 43 360 9.0 13.0 0.00 0.08 0.00 81 1017.8
20260507051605 43 360 8.0 11.0 0.00 0.08 0.00 81 1017.8
20260507050052 43 360 8.0 12.0 0.00 0.08 0.00 81 1017.9
20260507044555 43 360 8.0 11.0 0.00 0.12 0.08 81 1018.0
20260507043049 44 360 8.0 11.0 0.00 0.12 0.08 81 1018.2
20260507041553 44 360 8.0 11.0 0.00 0.12 0.08 81 1018.3
20260507040049 45 360 7.0 10.0 0.00 0.12 0.08 80 1018.2
20260507034549 45 360 7.0 10.0 0.00 0.14 0.08 79 1018.3
20260507033051 46 360 7.0 10.0 0.00 0.14 0.08 78 1018.5
20260507031549 47 360 5.0 8.0 0.00 0.14 0.08 77 1018.4
20260507030050 48 360 5.0 9.0 0.00 0.14 0.08 77 1018.4
20260507024551 49 360 6.0 9.0 0.00 0.15 0.08 76 1018.3
20260507023050 49 360 8.0 11.0 0.00 0.15 0.08 75 1018.3
20260507021551 50 360 8.0 12.0 0.00 0.15 0.08 74 1018.1
20260507020103 50 360 7.0 12.0 0.00 0.15 0.08 75 1018.0
20260507014558 51 360 6.0 12.0 0.00 0.15 0.08 73 1017.9
20260507013050 50 360 4.0 6.0 0.00 0.15 0.08 72 1018.0
20260507011549 51 360 6.0 10.0 0.00 0.15 0.08 70 1017.9
20260507010059 52 360 6.0 9.0 0.00 0.15 0.08 68 1017.9
20260507004553 52 360 7.0 12.0 0.00 0.15 0.08 67 1017.8
20260507003052 52 360 9.0 14.0 0.00 0.15 0.08 65 1017.9
20260507001556 53 360 6.0 12.0 0.00 0.15 0.08 61 1017.8
20260507000052 52 0 0.0 9.0 0.00 0.15 0.08 61 1018.1
20260506234555 52 360 7.0 11.0 0.00 0.15 0.08 61 1018.1
20260506233054 51 360 10.0 15.0 0.00 0.15 0.08 65 1018.1
20260506231606 51 360 11.0 17.0 0.00 0.15 0.08 66 1018.1
20260506230106 53 360 8.0 13.0 0.00 0.15 0.08 65 1018.3
20260506224552 53 360 7.0 13.0 0.00 0.15 0.08 63 1018.1
20260506223049 53 360 6.0 12.0 0.00 0.15 0.08 63 1018.2
20260506221608 53 360 8.0 15.0 0.00 0.15 0.08 64 1018.3
20260506220108 54 360 7.0 15.0 0.00 0.15 0.08 66 1018.3
20260506214550 53 360 9.0 15.0 0.00 0.15 0.08 63 1018.4
20260506213104 54 360 8.0 12.0 0.00 0.15 0.08 59 1018.6
20260506211547 53 360 9.0 13.0 0.00 0.15 0.08 60 1018.7
20260506210057 53 0 4.0 12.0 0.00 0.15 0.08 59 1018.7
20260506204556 54 360 9.0 11.0 0.01 0.16 0.08 60 1018.9
20260506203052 54 360 1.0 11.0 0.01 0.16 0.08 61 1019.0
20260506201553 53 360 2.0 12.0 0.01 0.16 0.08 62 1019.1
20260506200048 53 0 0.0 10.0 0.01 0.16 0.08 63 1019.3
20260506194556 53 360 7.0 12.0 0.00 0.15 0.07 64 1019.4
20260506193048 53 360 3.0 10.0 0.00 0.15 0.07 63 1019.7
20260506191551 53 360 3.0 9.0 0.00 0.15 0.07 64 1019.6
20260506190052 51 0 0.0 2.0 0.00 0.15 0.07 64 1019.7
20260506184605 50 0 0.0 6.0 0.00 0.15 0.07 66 1019.9
20260506183052 50 0 0.0 4.0 0.00 0.15 0.07 71 1020.2
20260506181551 49 0 0.0 0.0 0.00 0.15 0.07 75 1020.5
20260506180058 48 0 0.0 0.0 0.00 0.15 0.07 75 1020.8
20260506174554 48 0 0.0 0.0 0.00 0.15 0.07 76 1020.8
20260506173050 47 0 0.0 0.0 0.00 0.15 0.07 77 1020.8
20260506171601 47 0 0.0 0.0 0.00 0.15 0.07 77 1020.8
20260506170053 47 0 0.0 0.0 0.00 0.15 0.07 79 1020.6
20260506164550 46 0 0.0 0.0 0.00 0.15 0.07 79 1020.5
20260506163049 46 0 0.0 0.0 0.00 0.15 0.07 80 1020.3
20260506161549 45 0 0.0 1.0 0.00 0.15 0.07 81 1020.2
20260506160100 45 0 0.0 1.0 0.00 0.15 0.07 82 1020.3
20260506154551 45 0 0.0 0.0 0.00 0.16 0.07 82 1020.2
20260506153046 45 0 0.0 0.0 0.00 0.16 0.07 82 1020.2
20260506151550 44 0 0.0 0.0 0.00 0.16 0.07 82 1020.3
20260506150054 44 0 0.0 1.0 0.00 0.16 0.07 81 1020.1
20260506144559 44 0 0.0 5.0 0.00 0.16 0.07 79 1020.2
20260506143047 44 0 0.0 9.0 0.00 0.16 0.07 78 1020.1
20260506141547 44 0 0.0 4.0 0.00 0.16 0.07 75 1019.9
20260506140050 44 0 0.0 10.0 0.00 0.16 0.07 75 1019.9
20260506134553 44 360 5.0 9.0 0.00 0.16 0.07 75 1019.9
20260506133053 44 0 7.0 10.0 0.00 0.16 0.07 74 1019.8
20260506131607 43 360 6.0 9.0 0.00 0.16 0.07 74 1019.6
20260506130052 43 0 0.0 0.0 0.00 0.16 0.07 74 1019.4
20260506124553 43 0 0.0 5.0 0.01 0.16 0.07 74 1019.3
20260506123052 43 360 0.0 6.0 0.01 0.16 0.07 73 1019.1
20260506121555 43 0 0.0 0.0 0.02 0.16 0.07 74 1018.8
20260506120055 43 0 0.0 8.0 0.02 0.16 0.07 74 1018.6
20260506114554 43 0 3.0 9.0 0.02 0.16 0.06 74 1018.2
20260506113048 43 360 0.0 0.0 0.02 0.16 0.06 74 1018.1
20260506111549 43 0 0.0 0.0 0.01 0.15 0.05 74 1017.9
20260506110051 43 0 0.0 0.0 0.01 0.15 0.05 74 1017.8